Winona, MN

8:42 PM CST on November 18, 2019 (GMT -0600)
Winona Municipal-Conrad

Weather History for KONA - July, 2019

Change the Weather History Date:

Friday, July 12, 2019

  Actual Average Record
Temperature  
Mean Temperature 73 °F -  
Max Temperature 89 °F 82 °F 93 °F (2012)
Min Temperature 57 °F 62 °F 53 °F (2003)
Cooling Degree Days 8    
Growing Degree Days 23 (Base 50)    
Moisture  
Dew Point 64 °F    
Average Humidity 72    
Maximum Humidity 100    
Minimum Humidity 49    
Precipitation  
Precipitation 0.00 in - - ()
Sea Level Pressure  
Sea Level Pressure 29.92 in    
Wind  
Wind Speed 2 mph (SW)    
Max Wind Speed 12 mph    
Max Gust Speed 17 mph    
Visibility 10 miles    
Events Thunderstorm    
Averages and records for this station are not official NWS values.
T = Trace of Precipitation, MM = Missing Value Source: NWS Daily Summary

Daily Weather History Graph

Daily Weather History Graph

Search for Another Location

Airport or City:

Astronomy

Jul. 12, 2019 Rise Set
Actual Time 5:34 AM CDT 8:49 PM CDT
Civil Twilight 4:59 AM CDT 9:24 PM CDT
Nautical Twilight 4:13 AM CDT 10:10 PM CDT
Astronomical Twilight 3:17 AM CDT 11:06 PM CDT
Moon 5:05 PM CDT (7/12) 2:23 AM CDT (7/12)
Length of Visible Light 16h 25m
Length of Day
15h 14m
Waxing Gibbous, 83% of the Moon is Illuminated
Jul 12
Waxing Gibbous
Jul 16
Full
Jul 24
Last Quarter
Jul 31
New
Aug 7
First Quarter

Hourly Weather History & Observations

Time (CDT) Temp. Heat Index Dew Point Humidity Pressure Visibility Wind Dir Wind Speed Gust Speed Precip Events Conditions
12:55 AM 60.8 °F - 59.0 °F 94% 29.97 in 10.0 mi Calm Calm - N/A   Clear
1:55 AM 59.0 °F - 57.2 °F 94% 29.98 in 10.0 mi Calm Calm - N/A   Clear
2:55 AM 59.0 °F - 57.2 °F 94% 29.97 in 10.0 mi Calm Calm - N/A   Clear
3:55 AM 59.0 °F - 57.2 °F 94% 29.97 in 10.0 mi Calm Calm - N/A   Clear
4:55 AM 57.2 °F - 57.2 °F 100% 29.99 in 10.0 mi NW 3.5 mph - N/A   Clear
5:55 AM 59.0 °F - 57.2 °F 94% 29.99 in 10.0 mi Calm Calm - N/A   Clear
6:55 AM 62.6 °F - 59.0 °F 88% 29.98 in 10.0 mi Calm Calm - N/A   Clear
7:55 AM 69.8 °F - 62.6 °F 78% 29.97 in 10.0 mi SSE 4.6 mph - N/A   Clear
8:55 AM 75.2 °F - 62.6 °F 65% 29.96 in 10.0 mi ESE 3.5 mph - N/A   Clear
9:55 AM 77.0 °F - 60.8 °F 57% 29.94 in 10.0 mi WSW 6.9 mph - N/A   Clear
10:55 AM 80.6 °F 81.8 °F 62.6 °F 54% 29.93 in 10.0 mi WSW 5.8 mph - N/A   Clear
11:55 AM 82.4 °F 83.9 °F 64.4 °F 54% 29.92 in 10.0 mi SW 5.8 mph - N/A   Clear
12:55 PM 84.2 °F 85.6 °F 64.4 °F 51% 29.91 in 10.0 mi SW 8.1 mph - N/A   Clear
1:55 PM 89.6 °F 93.4 °F 68.0 °F 49% 29.91 in 10.0 mi WSW 11.5 mph 17.3 mph N/A   Clear
2:55 PM 87.8 °F 91.4 °F 68.0 °F 52% 29.92 in 10.0 mi West 5.8 mph - N/A Thunderstorm Mostly Cloudy
3:55 PM 82.4 °F 84.6 °F 66.2 °F 58% 29.85 in 10.0 mi Calm Calm - N/A   Clear
4:55 PM 82.4 °F 85.4 °F 68.0 °F 62% 29.85 in 10.0 mi West 4.6 mph - N/A   Clear
5:55 PM 84.2 °F 87.3 °F 68.0 °F 58% 29.85 in 10.0 mi WSW 4.6 mph - N/A   Clear
6:55 PM 84.2 °F 88.4 °F 69.8 °F 62% 29.87 in 10.0 mi SW 3.5 mph - N/A   Clear
7:55 PM 82.4 °F 86.3 °F 69.8 °F 66% 29.88 in 10.0 mi SW 3.5 mph - N/A   Clear
8:55 PM 82.4 °F 86.3 °F 69.8 °F 66% 29.88 in 10.0 mi Calm Calm - N/A   Overcast
9:55 PM 80.6 °F 83.9 °F 69.8 °F 70% 29.89 in 10.0 mi Calm Calm - N/A   Mostly Cloudy
10:55 PM 78.8 °F - 71.6 °F 78% 29.89 in 10.0 mi Calm Calm - N/A   Scattered Clouds
11:55 PM 75.2 °F - 69.8 °F 83% 29.89 in 10.0 mi Calm Calm - N/A   Scattered Clouds